Location: Nelson
(41.2830°S, 173.2830°E)
Time: 05:09:35
(UTC+13:00)

Radarsat Rocket - Pass Details

Date: 27 September 2021
Orbit: 933 x 1492 km, 100.6° (Epoch: 23 October)

Event Time Altitude Azimuth Distance (km) Brightness Sun altitude
Rises 21:59:53 0° 175° (S) 4,326 7.7 -27.9°
Reaches altitude 10° 22:03:41 10° 192° (SSW) 3,247 7.2 -28.5°
Maximum altitude 22:08:14 18° 230° (SW) 2,560 6.9 -29.2°
Drops below altitude 10° 22:12:30 10° 270° (W) 2,982 7.2 -29.9°
Sets 22:15:48 0° 288° (WNW) 3,841 7.6 -30.4°
